Weather History for Daggett-Barstow, CA

Change the Weather History Date:

Wednesday, October 30, 2013

  Actual Average Record
Temperature  
Mean Temperature 54 °F -  
Max Temperature 66 °F 73 °F 91 °F (1997)
Min Temperature 43 °F 48 °F 25 °F (1971)
Degree Days  
Heating Degree Days 12    
Growing Degree Days 4 (Base 50)    
Moisture  
Dew Point 32 °F    
Average Humidity 47    
Maximum Humidity 71    
Minimum Humidity 28    
Precipitation  
Precipitation 0.00 in - - ()
Sea Level Pressure  
Sea Level Pressure 30.03 in    
Wind  
Wind Speed 6 mph (West)    
Max Wind Speed 10 mph    
Max Gust Speed -    
Visibility 10 miles    
Events      
Averages and records for this station are not official NWS values.
T = Trace of Precipitation, MM = Missing Value Source: NWS Daily Summary

Daily Weather History Graph

Daily Weather History Graph

Search for Another Location

Airport:

Trip Planner

Search our weather history database for the weather conditions in past years. The results will help you decide how hot, cold, wet, or windy it might be!

Date:

Astronomy

Oct. 30, 2013 Rise Set
Actual Time 7:06 AM PDT 5:54 PM PDT
Civil Twilight 6:40 AM PDT 6:20 PM PDT
Nautical Twilight 6:10 AM PDT 6:50 PM PDT
Astronomical Twilight 5:41 AM PDT 7:19 PM PDT
Moon 3:08 AM PDT (10/30) 3:34 PM PDT (10/30)
Length of Visible Light 11h 40m
Length of Day
10h 48m
Waning Crescent, 16% of the Moon is Illuminated
Oct 30
Waning Crescent
Nov 3
New
Nov 9
First Quarter
Nov 17
Full
Nov 25
Last Quarter

Hourly Weather History & Observations

Time (PDT) Temp. Windchill Dew Point Humidity Pressure Visibility Wind Dir Wind Speed Gust Speed Precip Events Conditions
12:50 AM 48.9 °F - 35.1 °F 59% 29.96 in 10.0 mi WNW 8.1 mph - N/A   Clear
1:50 AM 46.0 °F 43.1 °F 35.1 °F 66% 29.98 in 10.0 mi West 5.8 mph - N/A   Clear
2:50 AM 46.9 °F - 35.1 °F 63% 29.99 in 10.0 mi WSW 8.1 mph - N/A   Mostly Cloudy
3:50 AM 45.0 °F 40.6 °F 35.1 °F 68% 29.99 in 10.0 mi West 8.1 mph - N/A   Partly Cloudy
4:50 AM 46.0 °F 41.0 °F 36.0 °F 68% 30.00 in 10.0 mi WSW 10.4 mph - N/A   Clear
5:50 AM 45.0 °F 40.1 °F 35.1 °F 68% 30.02 in 10.0 mi West 9.2 mph - N/A   Clear
6:50 AM 43.0 °F 38.8 °F 34.0 °F 71% 30.03 in 10.0 mi WSW 6.9 mph - N/A   Clear
7:50 AM 45.0 °F 40.1 °F 35.1 °F 68% 30.06 in 10.0 mi West 9.2 mph - N/A   Clear
8:50 AM 48.9 °F - 36.0 °F 61% 30.08 in 10.0 mi West 8.1 mph - N/A   Clear
9:50 AM 54.0 °F - 36.0 °F 51% 30.09 in 10.0 mi West 10.4 mph - N/A   Clear
10:50 AM 57.9 °F - 34.0 °F 41% 30.08 in 10.0 mi Calm Calm - N/A   Clear
11:50 AM 60.1 °F - 32.0 °F 35% 30.07 in 10.0 mi Variable 3.5 mph - N/A   Clear
12:50 PM 62.1 °F - 32.0 °F 32% 30.05 in 10.0 mi South 3.5 mph - N/A   Clear
1:50 PM 62.1 °F - 32.0 °F 32% 30.03 in 10.0 mi Calm Calm - N/A   Clear
2:50 PM 64.0 °F - 30.9 °F 29% 30.01 in 10.0 mi Calm Calm - N/A   Clear
3:50 PM 64.9 °F - 30.9 °F 28% 30.01 in 10.0 mi Calm Calm - N/A   Clear
4:50 PM 64.9 °F - 30.9 °F 28% 29.99 in 10.0 mi East 4.6 mph - N/A   Clear
5:50 PM 62.1 °F - 30.0 °F 30% 30.00 in 10.0 mi ENE 5.8 mph - N/A   Clear
6:50 PM 59.0 °F - 28.0 °F 31% 30.02 in 10.0 mi Calm Calm - N/A   Clear
7:50 PM 57.0 °F - 27.0 °F 32% 30.03 in 10.0 mi Calm Calm - N/A   Clear
8:50 PM 53.1 °F - 27.0 °F 37% 30.04 in 10.0 mi WNW 5.8 mph - N/A   Clear
9:50 PM 53.1 °F - 27.0 °F 37% 30.05 in 10.0 mi WSW 4.6 mph - N/A   Clear
10:50 PM 48.0 °F - 28.0 °F 46% 30.07 in 10.0 mi Calm Calm - N/A   Clear
11:50 PM 46.0 °F 43.1 °F 26.1 °F 46% 30.07 in 10.0 mi West 5.8 mph - N/A   Clear